Content
SEND FEEDBACK

Daily
Averages
Monthly
Summary
United States of America

INARAJAN, GUAM


Home > North America > United States > Guam
Elevation: 280 feet     Latitude: 13 18N     Longitude: 144 44E

WEATHER
 
SELECT A DAY
Number of Records: 350,199;   Date Range: 1/1/95 - 9/29/14
 
SHARE

PRINT THIS DATA

[ ← Previous Day ]
WEATHER ALMANAC - JUNE 28, 2013
[ Next Day → ]
[ °C ]   °F
We're sorry. There is no daily almanac available for Inarajan, Guam on June 28, 2013.
WEATHER BY HOUR - JUNE 28, 2013
[ °C ]   °F
Local TimeTemperatureDewpointHumidityBarometerVisibilityWind DirectionWind SpeedGust SpeedPrecipitationEventsConditions
12:17 AM78.8 °F75.2 °F89 %29.82 in10.0 miEast (100°)4.6 mphMostly Cloudy
12:20 AM78.8 °F75.2 °F89 %29.82 in10.0 miEast (100°)4.6 mphScattered Clouds
12:25 AM78.8 °F73.4 °F83 %29.83 in10.0 miEast (100°)4.6 mphMostly Cloudy
12:26 AM78.8 °F73.4 °F83 %29.83 in10.0 miEast (100°)4.6 mphMostly Cloudy
12:36 AM78.8 °F75.2 °F89 %29.83 in10.0 miEast (80°)5.8 mphMostly Cloudy
12:41 AM78.8 °F73.4 °F83 %29.83 in10.0 miEast (90°)5.8 mphMostly Cloudy
12:42 AM78.8 °F73.4 °F83 %29.83 in10.0 miEast (90°)5.8 mphMostly Cloudy
12:45 AM78.8 °F75.2 °F89 %29.83 in10.0 miEast (90°)5.8 mphMostly Cloudy
12:55 AM79.9 °F75.0 °F85 %29.83 in10.0 miEast (100°)4.6 mphOvercast
1:16 AM80.6 °F75.2 °F84 %29.83 in10.0 miEast (90°)9.2 mphScattered Clouds
1:20 AM80.6 °F75.2 °F84 %29.83 in10.0 miEast (90°)9.2 mphMostly Cloudy
1:22 AM80.6 °F75.2 °F84 %29.82 in10.0 miEast (90°)8.1 mphScattered Clouds
1:28 AM80.6 °F75.2 °F84 %29.82 in10.0 miEast (90°)8.1 mphMostly Cloudy
1:29 AM80.6 °F75.2 °F84 %29.83 in10.0 miEast (90°)8.1 mphScattered Clouds
1:32 AM80.6 °F75.2 °F84 %29.82 in10.0 miEast (100°)8.1 mphMostly Cloudy
1:39 AM80.6 °F75.2 °F84 %29.82 in10.0 miEast (100°)10.4 mphMostly Cloudy
1:55 AM79.3 °F74.5 °F85 %29.82 in10.0 miEast (100°)5.8 mphScattered Clouds
2:24 AM80.6 °F75.2 °F84 %29.82 in10.0 miESE (120°)4.6 mphMostly Cloudy
2:30 AM80.6 °F75.2 °F84 %29.82 in10.0 miESE (110°)4.6 mphMostly Cloudy
2:34 AM80.6 °F75.2 °F84 %29.82 in10.0 miEast (90°)4.6 mphMostly Cloudy
2:35 AM80.6 °F75.2 °F84 %29.82 in10.0 miEast (90°)4.6 mphMostly Cloudy
2:39 AM80.6 °F75.2 °F84 %29.82 in10.0 miEast (80°)5.8 mphMostly Cloudy
2:42 AM80.6 °F75.2 °F84 %29.82 in10.0 miEast (90°)5.8 mphMostly Cloudy
2:53 AM78.8 °F73.4 °F83 %29.82 in8.0 miEast (100°)12.7 mphRainLight Rain
2:55 AM78.8 °F73.9 °F85 %29.83 in6.0 miEast (80°)12.7 mph0.01 inRainRain
2:59 AM78.8 °F73.4 °F83 %29.82 in2.5 miENE (70°)12.7 mphRainHeavy Rain
3:00 AM78.8 °F75.2 °F89 %29.82 in2.0 miEast (80°)13.8 mphRainHeavy Rain
3:01 AM78.8 °F75.2 °F89 %29.82 in1.5 miEast (80°)12.7 mphRainHeavy Rain
3:03 AM77.0 °F75.2 °F94 %29.82 in1.2 miENE (70°)8.1 mphRainHeavy Rain
3:04 AM77.0 °F75.2 °F94 %29.82 in1.2 miENE (70°)8.1 mphRainHeavy Rain
3:05 AM77.0 °F75.2 °F94 %29.82 in1.2 miENE (60°)8.1 mphRainHeavy Rain
3:06 AM77.0 °F75.2 °F94 %29.82 in1.0 miENE (60°)6.9 mphRainHeavy Rain
3:07 AM77.0 °F75.2 °F94 %29.82 in1.0 miENE (70°)5.8 mphRainHeavy Rain
3:11 AM77.0 °F75.2 °F94 %29.82 in1.2 miENE (70°)5.8 mphRainHeavy Rain
3:12 AM77.0 °F75.2 °F94 %29.82 in1.2 miENE (70°)4.6 mphRainHeavy Rain
3:13 AM77.0 °F75.2 °F94 %29.82 in1.5 miENE (60°)4.6 mphRainHeavy Rain
3:15 AM77.0 °F75.2 °F94 %29.82 in2.0 miENE (70°)4.6 mphRainLight Rain
3:17 AM77.0 °F75.2 °F94 %29.82 in2.5 miENE (60°)4.6 mphRainLight Rain
3:18 AM77.0 °F75.2 °F94 %29.82 in3.0 miNE (50°)3.5 mphRainLight Rain
3:25 AM77.0 °F73.4 °F89 %29.82 in10.0 miCalmMostly Cloudy
3:26 AM77.0 °F73.4 °F89 %29.82 in10.0 miCalmScattered Clouds
3:55 AM77.0 °F74.7 °F92 %29.82 in10.0 miCalm0.40 inScattered Clouds
4:15 AM77.0 °F73.4 °F89 %29.82 in10.0 miEast (80°)6.9 mphRainLight Rain
4:17 AM77.0 °F73.4 °F89 %29.82 in9.0 miEast (100°)5.8 mphRainLight Rain
4:24 AM78.8 °F75.2 °F89 %29.81 in10.0 miEast (90°)5.8 mphLight Drizzle
4:26 AM78.8 °F73.4 °F83 %29.81 in10.0 miEast (90°)6.9 mphScattered Clouds
4:55 AM77.9 °F73.2 °F85 %29.82 in10.0 miEast (90°)9.2 mph0.00 inClear
5:55 AM78.8 °F75.4 °F89 %29.84 in10.0 miENE (70°)5.8 mphPartly Cloudy
6:11 AM78.8 °F75.2 °F89 %29.84 in7.0 miENE (60°)10.4 mphRainLight Rain
6:13 AM78.8 °F75.2 °F89 %29.84 in5.0 miEast (80°)11.5 mphRainRain
6:17 AM78.8 °F75.2 °F89 %29.84 in5.0 miENE (70°)8.1 mphRainRain
6:19 AM78.8 °F75.2 °F89 %29.84 in5.0 miEast (80°)9.2 mphRainLight Rain
6:24 AM78.8 °F75.2 °F89 %29.84 in10.0 miEast (80°)10.4 mphScattered Clouds
6:55 AM80.1 °F76.3 °F88 %29.85 in10.0 miEast (90°)10.4 mph0.03 inPartly Cloudy
7:52 AM80.6 °F75.2 °F84 %29.86 in10.0 miEast (80°)10.4 mphMostly Cloudy
7:55 AM80.8 °F75.7 °F85 %29.86 in10.0 miEast (80°)11.5 mphMostly Cloudy
8:02 AM80.6 °F75.2 °F84 %29.87 in10.0 miEast (90°)17.3 mphRainLight Rain
8:09 AM78.8 °F75.2 °F89 %29.87 in2.5 miEast (90°)10.4 mphRainLight Rain
8:14 AM78.8 °F73.4 °F83 %29.87 in3.0 miESE (110°)6.9 mphRainLight Rain
8:18 AM78.8 °F75.2 °F89 %29.87 in7.0 miESE (110°)8.1 mphMostly Cloudy
8:20 AM78.8 °F75.2 °F89 %29.87 in10.0 miSE (130°)6.9 mphScattered Clouds
8:36 AM80.6 °F75.2 °F84 %29.87 in10.0 miEast (90°)5.8 mphPartly Cloudy
8:55 AM81.3 °F76.5 °F85 %29.86 in10.0 miEast (90°)10.4 mph0.03 inClear
9:04 AM80.6 °F75.2 °F84 %29.86 in10.0 miEast (90°)13.8 mph20.7 mphLight Drizzle
9:12 AM80.6 °F77.0 °F89 %29.86 in10.0 miENE (70°)13.8 mphScattered Clouds
9:55 AM83.5 °F74.5 °F74 %29.86 in10.0 miEast (80°)8.1 mph0.00 inClear
10:55 AM83.5 °F75.7 °F77 %29.85 in10.0 miESE (120°)10.4 mphPartly Cloudy
11:55 AM84.9 °F77.4 °F78 %29.84 in10.0 miESE (110°)11.5 mphMostly Cloudy
12:02 PM84.2 °F77.0 °F79 %29.84 in10.0 miEast (100°)10.4 mphMostly Cloudy
12:03 PM84.2 °F77.0 °F79 %29.84 in10.0 miEast (100°)11.5 mphMostly Cloudy
12:06 PM84.2 °F77.0 °F79 %29.84 in10.0 miESE (120°)12.7 mphMostly Cloudy
12:29 PM84.2 °F77.0 °F79 %29.84 in10.0 miESE (110°)10.4 mphScattered Clouds
12:41 PM84.2 °F77.0 °F79 %29.83 in10.0 miEast (90°)11.5 mphRainLight Rain
12:48 PM84.2 °F77.0 °F79 %29.83 in10.0 miESE (110°)9.2 mphScattered Clouds
12:55 PM84.0 °F77.0 °F79 %29.83 in10.0 miEast (100°)10.4 mph0.00 inMostly Cloudy
1:04 PM82.4 °F75.2 °F79 %29.83 in5.0 miEast (100°)17.3 mph21.9 mphRainLight Rain
1:06 PM82.4 °F77.0 °F84 %29.83 in1.8 miESE (120°)15.0 mph21.9 mphRainHeavy Rain
1:07 PM80.6 °F75.2 °F84 %29.83 in1.2 miESE (120°)10.4 mph21.9 mphRainHeavy Rain
1:09 PM80.6 °F75.2 °F84 %29.83 in1.0 miEast (90°)10.4 mph21.9 mphRainHeavy Rain
1:10 PM80.6 °F75.2 °F84 %29.83 in0.8 miEast (100°)6.9 mph21.9 mphRainHeavy Rain
1:16 PM78.8 °F75.2 °F89 %29.82 in1.0 miSE (130°)6.9 mphRainLight Rain
1:17 PM78.8 °F75.2 °F89 %29.82 in1.2 miSE (130°)5.8 mphRainLight Rain
1:18 PM78.8 °F75.2 °F89 %29.82 in1.5 miSE (130°)4.6 mphRainLight Rain
1:19 PM78.8 °F75.2 °F89 %29.82 in1.8 miSE (130°)4.6 mphRainLight Rain
1:20 PM78.8 °F75.2 °F89 %29.82 in2.5 miSE (130°)5.8 mphRainLight Rain
1:21 PM80.6 °F77.0 °F89 %29.82 in4.0 miESE (120°)5.8 mphMostly Cloudy
1:23 PM80.6 °F77.0 °F89 %29.82 in9.0 miESE (110°)5.8 mphScattered Clouds
1:55 PM83.5 °F78.6 °F85 %29.81 in10.0 miEast (100°)8.1 mph0.19 inScattered Clouds
2:09 PM84.2 °F78.8 °F84 %29.81 in10.0 miSE (130°)11.5 mphMostly Cloudy
2:14 PM84.2 °F78.8 °F84 %29.81 in10.0 miESE (120°)9.2 mphMostly Cloudy
2:41 PM84.2 °F77.0 °F79 %29.80 in10.0 miEast (90°)12.7 mphMostly Cloudy
2:45 PM84.2 °F77.0 °F79 %29.80 in10.0 miEast (100°)12.7 mphScattered Clouds
2:55 PM85.1 °F77.2 °F77 %29.80 in10.0 miEast (90°)11.5 mphScattered Clouds
3:55 PM85.1 °F77.0 °F77 %29.79 in10.0 miEast (100°)12.7 mphScattered Clouds
4:34 PM84.2 °F77.0 °F79 %29.79 in10.0 miESE (110°)11.5 mphMostly Cloudy
4:38 PM84.2 °F77.0 °F79 %29.80 in10.0 miEast (100°)10.4 mphMostly Cloudy
4:50 PM84.2 °F77.0 °F79 %29.80 in10.0 miESE (120°)11.5 mphScattered Clouds
4:55 PM83.7 °F76.6 °F79 %29.80 in10.0 miEast (100°)11.5 mphScattered Clouds
4:57 PM84.2 °F77.0 °F79 %29.80 in10.0 miESE (110°)10.4 mphMostly Cloudy
5:27 PM84.2 °F77.0 °F79 %29.80 in10.0 miEast (100°)10.4 mphMostly Cloudy
5:29 PM82.4 °F77.0 °F84 %29.80 in10.0 miEast (100°)10.4 mphMostly Cloudy
5:37 PM82.4 °F77.0 °F84 %29.80 in10.0 miESE (110°)11.5 mphScattered Clouds
5:55 PM83.3 °F76.5 °F80 %29.80 in10.0 miESE (110°)10.4 mphScattered Clouds
6:11 PM82.4 °F77.0 °F84 %29.81 in10.0 miESE (110°)9.2 mphMostly Cloudy
6:19 PM82.4 °F77.0 °F84 %29.81 in10.0 miESE (110°)9.2 mphMostly Cloudy
6:55 PM81.1 °F76.3 °F85 %29.82 in10.0 miEast (100°)9.2 mphPartly Cloudy
7:21 PM80.6 °F77.0 °F89 %29.83 in10.0 miESE (110°)9.2 mphMostly Cloudy
7:23 PM80.6 °F77.0 °F89 %29.83 in10.0 miESE (110°)9.2 mphMostly Cloudy
7:55 PM81.1 °F76.3 °F85 %29.84 in10.0 miEast (100°)9.2 mphMostly Cloudy
8:26 PM80.6 °F77.0 °F89 %29.85 in10.0 miEast (100°)9.2 mphMostly Cloudy
8:32 PM80.6 °F77.0 °F89 %29.85 in10.0 miEast (90°)10.4 mphMostly Cloudy
8:35 PM80.6 °F77.0 °F89 %29.85 in10.0 miEast (100°)10.4 mphMostly Cloudy
8:40 PM80.6 °F75.2 °F84 %29.85 in10.0 miEast (100°)9.2 mphScattered Clouds
8:45 PM80.6 °F77.0 °F89 %29.85 in10.0 miEast (90°)11.5 mphMostly Cloudy
8:55 PM81.1 °F77.2 °F88 %29.85 in10.0 miEast (80°)10.4 mphMostly Cloudy
9:00 PM80.6 °F77.0 °F89 %29.85 in10.0 miEast (80°)12.7 mphMostly Cloudy
9:04 PM80.6 °F77.0 °F89 %29.85 in10.0 miEast (90°)10.4 mphMostly Cloudy
9:13 PM80.6 °F77.0 °F89 %29.85 in10.0 miEast (100°)10.4 mphMostly Cloudy
9:16 PM80.6 °F77.0 °F89 %29.85 in10.0 miEast (100°)10.4 mphMostly Cloudy
9:20 PM80.6 °F77.0 °F89 %29.85 in10.0 miEast (100°)11.5 mphScattered Clouds
9:21 PM80.6 °F77.0 °F89 %29.85 in10.0 miEast (100°)11.5 mphMostly Cloudy
9:22 PM80.6 °F77.0 °F89 %29.85 in10.0 miEast (100°)10.4 mphScattered Clouds
9:26 PM80.6 °F77.0 °F89 %29.85 in10.0 miEast (100°)11.5 mphMostly Cloudy
9:28 PM80.6 °F77.0 °F89 %29.85 in10.0 miEast (90°)13.8 mphMostly Cloudy
9:55 PM81.0 °F76.8 °F87 %29.86 in10.0 miEast (90°)11.5 mphMostly Cloudy
10:07 PM80.6 °F77.0 °F89 %29.86 in10.0 miEast (90°)10.4 mphMostly Cloudy
10:11 PM80.6 °F77.0 °F89 %29.86 in10.0 miEast (90°)10.4 mphScattered Clouds
10:40 PM80.6 °F77.0 °F89 %29.87 in10.0 miEast (80°)11.5 mphMostly Cloudy
10:43 PM80.6 °F77.0 °F89 %29.87 in10.0 miEast (80°)10.4 mphScattered Clouds
10:55 PM80.4 °F77.7 °F91 %29.87 in10.0 miEast (90°)9.2 mphScattered Clouds
10:56 PM80.6 °F77.0 °F89 %29.87 in10.0 miEast (80°)8.1 mphMostly Cloudy
11:27 PM80.6 °F77.0 °F89 %29.86 in10.0 miEast (100°)11.5 mphMostly Cloudy
11:30 PM80.6 °F77.0 °F89 %29.86 in10.0 miEast (100°)13.8 mphMostly Cloudy
11:33 PM80.6 °F77.0 °F89 %29.86 in10.0 miEast (100°)12.7 mphMostly Cloudy
11:46 PM80.6 °F77.0 °F89 %29.86 in10.0 miEast (90°)10.4 mphMostly Cloudy
11:48 PM80.6 °F77.0 °F89 %29.86 in10.0 miEast (90°)11.5 mphMostly Cloudy
11:53 PM80.6 °F77.0 °F89 %29.86 in10.0 miEast (80°)11.5 mphMostly Cloudy
11:54 PM80.6 °F77.0 °F89 %29.86 in10.0 miEast (90°)12.7 mphMostly Cloudy
11:55 PM80.4 °F76.6 °F88 %29.86 in10.0 miEast (90°)12.7 mphMostly Cloudy
Hourly data recorded from PGUA, located miles away from Inarajan, Guam







STORIES FROM OUR PARTNERS